STARLINK-35271

Last updated on Mon Oct 20 2025 00:02:07 GMT+0000 (Coordinated Universal Time)

1 65812U 25218X 25292.25949973 .00065061 00000+0 11870-2 0 9994 2 65812 97.6027 152.8436 0001515 94.9266 265.2158 15.49214497 3640
UTC large
Height (km)
Speed (km/s)
/
Latitude / Longitude
Inclination (degrees)
Orbital Period (minutes)
Azimuth
Elevation
Range (km)
Doppler Factor

Next 0 passes for location: London (51.5072 / 0.1276)

Sorry there are no passes over London.